Meteo Giornale » Osservazioni meteo Italia » Brescia-Ghedi

ore: 04:55 - Osservazioni Meteo Brescia-Ghedi
Lat. 45° 25' N Lon. 10° 17' E Alt. 102 metri s.l.m.

nuvoloso Europe/Rome

18 °C

Nuvoloso

Temp. 24 Ore

17 °C

24 °C

Est/Nord-Est

16.7 Km/h

Dew point 14 °C

Umidità 77 %

Visibilità  10 Km

Il sole sorge alle ore 07:08

Il sole tramonta alle ore 19:12

Data e Ora Cielo e Fenomeni T °C DP °C Um. % Pres. hPa Vis. km Vento km/h
Oggi h: 04:55 nuvoloso Nuvoloso 18 14 77 1000 10 E/NE 16.7
Oggi h: 03:55 nuvoloso Nuvoloso 18 14 77 1000 10 E/NE 16.7
Oggi h: 02:55 nuvoloso Nuvoloso 18 14 77 1001 10 E 16.7
Oggi h: 01:55 nuvoloso Nuvoloso 18 14 77 1003 10 E 14.8
Oggi h: 00:55 poco_nuvoloso Poco Nuvoloso 18 15 82 1003 10 E 14.8
Ieri h: 23:55 coperto_pioggia Pioggia Debole 18 15 82 1005 8 E/NE 11.1
Ieri h: 22:55 nuvoloso Nuvoloso 19 15 77 1005 10 E 20.3
Ieri h: 21:55 nuvoloso Nuvoloso 19 15 77 1006 8 E/NE 14.8
Ieri h: 20:55 coperto_pioggia Pioggia Debole 20 16 77 1006 6 SE 14.8
Ieri h: 19:55 nuvoloso Nuvoloso 20 16 77 1006 6 E 18.5
Ieri h: 18:55 foschia Foschia 20 16 77 1007 5 E 14.8
Ieri h: 17:55 nuvoloso Nuvoloso 20 16 77 1008 6 E 18.5
Ieri h: 16:55 coperto_temporali Temporale Foschia 20 16 77 1009 5 O/NO 11.1
Ieri h: 16:25 nuvoloso_temporali Temporale con Pioggia Debole 21 17 77 1009 4 N/NO 9.3
Ieri h: 16:02 nuvoloso_temporali Temporale con Pioggia 21 17 77 1009 2 SE 16.7
Ieri h: 14:55 nuvoloso Nuvoloso 24 15 57 1010 7 E 13
Ieri h: 13:55 nuvoloso Nuvoloso 23 15 60 1010 7 E 11.1
Ieri h: 12:55 nuvoloso Nuvoloso 23 15 60 1011 7 E 13
Ieri h: 11:55 nuvoloso Nuvoloso 22 15 64 1011 6 E 13
Ieri h: 11:25 nuvoloso Nuvoloso 21 15 68 1011 6 E 13
Ieri h: 10:55 foschia Foschia 20 15 72 1011 5 E 9.3
Ieri h: 08:55 foschia Foschia 18 14 77 1010 5 SE 9.3
Ieri h: 07:55 foschia Foschia 17 13 77 1010 5 E 9.3
Ieri h: 06:55 foschia Foschia 17 12 72 1010 5 E/NE 7.4